SIA606 WSSS-WIII

Flight info

Callsign SIA606
Flight time 0h 20m
Altitude 39000
Route ANITO8B ANITO B470 BUNIK
Aircraft A359/H-SDE2E3GHIJ3J4J5LM1ORWXY/LB1D1

Departure

Time 2026-05-08 00:28
Airport Singapore Changi Airport (WSSS)

Arrival

Time 2026-05-08 00:49
Airport Soekarno-Hatta International Airport (WIII)
Time Latitude Longitude Altitude Speed Heading
2026-05-08 00:11 1.36059 103.99234 30 ft 0 kts 289°
2026-05-08 00:14 1.36057 103.99241 30 ft 1 kts 289°
2026-05-08 00:15 1.36054 103.99247 30 ft 2 kts 289°
2026-05-08 00:15 1.36049 103.99263 29 ft 2 kts 289°
2026-05-08 00:15 1.36043 103.99278 30 ft 3 kts 299°
2026-05-08 00:15 1.36033 103.99292 28 ft 3 kts 317°
2026-05-08 00:16 1.36019 103.99302 29 ft 3 kts 336°
2026-05-08 00:16 1.36002 103.99308 29 ft 3 kts 355°
2026-05-08 00:16 1.35984 103.99307 29 ft 3 kts 15°
2026-05-08 00:16 1.35994 103.99313 33 ft 10 kts 30°
2026-05-08 00:17 1.36008 103.99325 31 ft 4 kts 45°
2026-05-08 00:17 1.36058 103.99234 31 ft 0 kts 290°
2026-05-08 00:23 1.36058 103.99235 30 ft 2 kts 290°
2026-05-08 00:23 1.36053 103.99250 30 ft 2 kts 290°
2026-05-08 00:24 1.36048 103.99264 28 ft 2 kts 290°
2026-05-08 00:24 1.36043 103.99278 29 ft 2 kts 290°
2026-05-08 00:24 1.36037 103.99293 29 ft 2 kts 295°
2026-05-08 00:24 1.36029 103.99307 28 ft 2 kts 313°
2026-05-08 00:25 1.36017 103.99317 29 ft 2 kts 330°
2026-05-08 00:25 1.36003 103.99323 31 ft 2 kts 349°
2026-05-08 00:25 1.35988 103.99325 35 ft 0 kts
2026-05-08 00:25 1.36001 103.99327 32 ft 6 kts
2026-05-08 00:26 1.36074 103.99350 36 ft 16 kts 21°
2026-05-08 00:26 1.36205 103.99402 36 ft 24 kts 23°
2026-05-08 00:26 1.36324 103.99501 37 ft 19 kts 62°
2026-05-08 00:26 1.36320 103.99594 35 ft 23 kts 110°
2026-05-08 00:27 1.36217 103.99834 30 ft 30 kts 120°
2026-05-08 00:27 1.36087 103.99850 30 ft 17 kts 204°
2026-05-08 00:27 1.36011 103.99817 30 ft 18 kts 203°
2026-05-08 00:27 1.35733 103.99701 32 ft 76 kts 202°
2026-05-08 00:28 1.35057 103.99417 31 ft 133 kts 202°
2026-05-08 00:28 1.34046 103.98991 49 ft 180 kts 204°
2026-05-08 00:28 1.31510 103.97855 1551 ft 183 kts 205°
2026-05-08 00:28 1.25596 103.95299 3406 ft 261 kts 204°
2026-05-08 00:29 1.18353 103.95340 5876 ft 274 kts 168°
2026-05-08 00:29 1.10834 103.97358 8160 ft 286 kts 156°
2026-05-08 00:29 1.04302 104.02189 10631 ft 315 kts 144°
2026-05-08 00:29 0.99646 104.10530 11962 ft 365 kts 114°
2026-05-08 00:30 0.95694 104.20001 14213 ft 375 kts 114°
2026-05-08 00:30 0.90546 104.29104 16141 ft 386 kts 122°
2026-05-08 00:30 0.84770 104.38353 18000 ft 397 kts 122°
2026-05-08 00:30 0.78610 104.47679 19528 ft 406 kts 126°
2026-05-08 00:31 0.71440 104.56507 21058 ft 418 kts 146°
2026-05-08 00:31 0.60183 104.60265 22490 ft 432 kts 163°
2026-05-08 00:31 0.48491 104.63709 23867 ft 442 kts 163°
2026-05-08 00:31 0.36567 104.67240 25120 ft 451 kts 163°
2026-05-08 00:32 0.24411 104.70835 26547 ft 461 kts 163°
2026-05-08 00:32 0.12101 104.74484 28002 ft 472 kts 163°
2026-05-08 00:32 -0.00666 104.78269 29425 ft 483 kts 163°
2026-05-08 00:32 -0.13680 104.82129 30617 ft 493 kts 163°
2026-05-08 00:33 -0.26920 104.86159 31630 ft 500 kts 158°
2026-05-08 00:33 -0.38858 104.93339 32592 ft 504 kts 146°
2026-05-08 00:33 -0.50430 105.01218 33793 ft 502 kts 146°
2026-05-08 00:33 -0.61971 105.09030 34832 ft 500 kts 146°
2026-05-08 00:34 -0.73498 105.16825 35812 ft 498 kts 146°
2026-05-08 00:34 -0.84847 105.24509 36698 ft 497 kts 146°
2026-05-08 00:34 -0.96271 105.32251 37565 ft 495 kts 146°
2026-05-08 00:34 -1.07664 105.39973 38398 ft 493 kts 146°
2026-05-08 00:35 -1.18998 105.47652 38882 ft 494 kts 146°
2026-05-08 00:35 -1.30372 105.55352 38883 ft 494 kts 146°
2026-05-08 00:35 -1.53173 105.70789 38883 ft 495 kts 146°
2026-05-08 00:36 -1.76007 105.86254 38885 ft 495 kts 146°
2026-05-08 00:36 -1.98672 106.01608 38881 ft 495 kts 146°
2026-05-08 00:37 -2.22576 106.14949 38884 ft 498 kts 169°
2026-05-08 00:38 -2.63980 106.21983 38890 ft 503 kts 170°
2026-05-08 00:38 -2.91583 106.26708 38882 ft 502 kts 170°
2026-05-08 00:39 -3.19021 106.31408 38878 ft 503 kts 171°
2026-05-08 00:39 -3.46631 106.36139 38877 ft 504 kts 171°
2026-05-08 00:40 -3.74299 106.41041 38879 ft 505 kts 170°
2026-05-08 00:40 -4.01873 106.46224 37794 ft 505 kts 170°
2026-05-08 00:40 -4.15718 106.48805 36228 ft 503 kts 169°
2026-05-08 00:41 -4.29577 106.51388 33279 ft 511 kts 169°
2026-05-08 00:41 -4.43637 106.54033 30394 ft 511 kts 169°
2026-05-08 00:41 -4.57422 106.56634 28038 ft 496 kts 169°
2026-05-08 00:41 -4.70769 106.59147 25844 ft 479 kts 169°
2026-05-08 00:42 -4.83546 106.61550 23720 ft 465 kts 169°
2026-05-08 00:42 -4.95996 106.64381 21339 ft 449 kts 166°
2026-05-08 00:42 -5.07892 106.67193 19175 ft 431 kts 167°
2026-05-08 00:42 -5.19398 106.69864 16956 ft 414 kts 167°
2026-05-08 00:43 -5.30407 106.72411 14849 ft 396 kts 167°
2026-05-08 00:43 -5.40945 106.74849 12745 ft 380 kts 167°
2026-05-08 00:43 -5.50988 106.77174 11073 ft 352 kts 167°
2026-05-08 00:43 -5.59771 106.79202 10640 ft 297 kts 167°
2026-05-08 00:44 -5.67627 106.81036 9453 ft 290 kts 167°
2026-05-08 00:44 -5.75444 106.82845 8199 ft 285 kts 167°
2026-05-08 00:44 -5.83105 106.84621 6993 ft 280 kts 167°
2026-05-08 00:44 -5.90622 106.86365 5756 ft 274 kts 167°
2026-05-08 00:45 -5.97917 106.88059 4603 ft 268 kts 167°
2026-05-08 00:45 -6.04414 106.88314 4189 ft 224 kts 226°
2026-05-08 00:45 -6.06945 106.82766 3112 ft 221 kts 249°
2026-05-08 00:45 -6.08348 106.79225 2397 ft 218 kts 249°
2026-05-08 00:46 -6.08908 106.77814 2129 ft 215 kts 249°
2026-05-08 00:46 -6.09450 106.76448 1861 ft 205 kts 249°
2026-05-08 00:46 -6.09960 106.75164 1618 ft 191 kts 249°
2026-05-08 00:46 -6.10436 106.73966 1366 ft 177 kts 249°
2026-05-08 00:47 -6.10881 106.72851 1138 ft 166 kts 249°
2026-05-08 00:47 -6.11297 106.71811 938 ft 156 kts 249°
2026-05-08 00:47 -6.11687 106.70830 752 ft 146 kts 249°
2026-05-08 00:47 -6.12054 106.69907 591 ft 143 kts 249°
2026-05-08 00:48 -6.12426 106.68971 396 ft 147 kts 249°
2026-05-08 00:48 -6.12805 106.68015 178 ft 149 kts 249°
2026-05-08 00:48 -6.13178 106.67078 59 ft 138 kts 245°
2026-05-08 00:48 -6.13509 106.66264 45 ft 104 kts 251°
2026-05-08 00:49 -6.13612 106.65852 44 ft 18 kts 267°
2026-05-08 00:49 -6.13612 106.65838 44 ft 1 kts 268°
2026-05-08 00:49 -6.13609 106.65779 44 ft 20 kts 275°
2026-05-08 00:49 -6.13527 106.65654 45 ft 27 kts 339°
2026-05-08 00:50 -6.13401 106.65625 44 ft 8 kts 18°
2026-05-08 00:50 -6.13354 106.65682 45 ft 9 kts 70°
2026-05-08 00:50 -6.13330 106.65744 45 ft 6 kts 44°
2026-05-08 00:50 -6.13316 106.65742 45 ft 2 kts 339°
2026-05-08 00:51 -6.13301 106.65729 45 ft 0 kts 307°
2026-05-08 00:51 -6.13299 106.65726 45 ft 0 kts 307°
2026-05-08 00:51 -6.13298 106.65725 45 ft 0 kts 307°